Regional Weather Roundup
Issued by NWS Cleveland, OH

Home | Current Version | Previous Version | Text Only | Print | Product List | Glossary Off
Versions: 1 2 3 4 5 6 7 8 9 10 11 12 13 14 15 16 17 18 19 20 21 22 23 24 25 26 27 28 29 30 31 32 33 34 35 36 37 38 39 40 41 42 43 44 45 46 47 48 49 50

000
ASUS41 KCLE 020902
RWRCLE
OHIO REGIONAL WEATHER ROUNDUP
NATIONAL WEATHER SERVICE CLEVELAND, OH
500 AM EDT TUE SEP 02 2014

NOTE: "FAIR" INDICATES FEW OR NO CLOUDS BELOW 12,000 FEET WITH NO
SIGNIFICANT WEATHER AND/OR OBSTRUCTIONS TO VISIBILITY.

OHZ001>008-015>018-024>027-034-035-043-044-021000-
   NORTHWEST OHIO

CITY           SKY/WX    TMP DP  RH WIND       PRES   REMARKS
DEFIANCE       CLOUDY    70  65  84 SW6       29.89F
FINDLAY        MOCLDY    70  67  90 S6        29.90F
TOLEDO EXPRESS CLOUDY    70  65  84 SW5       29.87S
TOLEDO EXEC    MOCLDY    70  65  84 SW8       29.89S
LIMA           CLOUDY    72  68  87 SW8       29.93F
$$

OHZ009>014-019>023-028>033-038-089-021000-
   NORTHEAST OHIO

CITY           SKY/WX    TMP DP  RH WIND       PRES   REMARKS
CLE-HOPKINS    MOCLDY    72  68  87 SW9       29.92S
CLE-LAKEFRONT  CLEAR     75  67  76 SW10      29.88S
CUY CO. ARPT   NOT AVBL
LORAIN-ELYRIA  CLEAR     74  68  81 W7        29.92F
ASHTABULA      CLOUDY    73  70  90 SW7       29.91R
AKRON-CANTON   PTCLDY    72  68  87 SW5       29.94S
WOOSTER        CLEAR     68  66  93 W3        29.96S
MANSFIELD      PTCLDY    71  70  96 SW7       29.95F
YOUNGSTOWN     MOCLDY    71  69  93 SW9       29.94R
$$

OHZ042-051>053-060>062-070>072-077>081-021000-
  SOUTHWEST OHIO

CITY           SKY/WX    TMP DP  RH WIND       PRES   REMARKS
CINC-COVINGTON CLOUDY    76  71  85 S8        29.96F
CINC-LUNKEN    CLOUDY    76  71  85 SW7       29.95F
HAMILTON       CLOUDY    73  72  96 CALM      29.95F
DAYTON         CLOUDY    73  71  93 SW7       29.96F
WRIGHT-PAT AFB CLOUDY    73  71  96 SW5       29.95F
DAYTON GENERAL CLOUDY    75  71  87 W5        29.95S
WILMINGTON     MOCLDY    71  69  93 S6        29.96F
$$

OHZ036-037-039>041-045>050-054>059-063>069-073>076-082>088-021000-
  CENTRAL AND SOUTHEAST OHIO

CITY           SKY/WX    TMP DP  RH WIND       PRES   REMARKS
COLUMBUS       MOCLDY    75  70  84 S5        29.95S
OSU AIRPORT    MOCLDY    72  69  90 SW6       29.95S
BOLTON FIELD   PTCLDY    68  68 100 S5        29.96F FOG
RICKENBACK AFB PTCLDY    71  66  84 S3        29.95S
NEWARK         CLEAR     70  68  93 S3        29.95F
MARION         MOCLDY    69  68  96 S6        29.95R FOG
LANCASTER      MOCLDY    74  70  87 SW6       29.97S
ZANESVILLE     MOCLDY    71  68  90 S6        29.97S
NEW PHILLY     PTCLDY    72  70  93 CALM      29.95F
$$



USA.gov is the U.S. government's official web portal to all federal, state and local government web resources and services.